Drogheda, Ireland

8:49 AM IST on July 25, 2017 (GMT +0100)
Drogheda

Weather History for 03969 - October, 2013

Change the Weather History Date:

Thursday, October 10, 2013

  Actual Average Record
Temperature  
Mean Temperature 45 °F -  
Max Temperature 53 °F 55 °F - ()
Min Temperature 37 °F 44 °F - ()
Degree Days  
Heating Degree Days 20    
Moisture  
Dew Point 37 °F    
Average Humidity 75    
Maximum Humidity 87    
Minimum Humidity 45    
Precipitation  
Precipitation 0.00 in 0.09 in - ()
Sea Level Pressure  
Sea Level Pressure 30.34 in    
Wind  
Wind Speed 12 mph ()    
Max Wind Speed 18 mph    
Max Gust Speed -    
Visibility 6.5 miles    
Events      
T = Trace of Precipitation, MM = Missing Value Source: Averaged Metar Reports

Daily Weather History Graph

Daily Weather History Graph

Search for Another Location

Airport or City:

Trip Planner

Search our weather history database for the weather conditions in past years. The results will help you decide how hot, cold, wet, or windy it might be!

Date:

Astronomy

Oct. 10, 2013 Rise Set
Actual Time 7:42 AM IST 6:40 PM IST
Civil Twilight 7:07 AM IST 7:14 PM IST
Nautical Twilight 6:27 AM IST 7:55 PM IST
Astronomical Twilight 5:46 AM IST 8:35 PM IST
Moon 1:55 PM IST (10/10) 10:30 PM IST (10/10)
Length of Visible Light 12h 07m
Length of Day
10h 57m
Waxing Crescent, 33% of the Moon is Illuminated
Oct 10
Waxing Crescent
Oct 12
First Quarter
Oct 19
Full
Oct 27
Last Quarter
Nov 3
New

Hourly Weather History & Observations

Time (IST) Temp. Windchill Dew Point Humidity Pressure Visibility Wind Dir Wind Speed Gust Speed Precip Events Conditions
12:00 AM 42.8 °F 34.5 °F 37.4 °F 81% 30.24 in 6.2 mi NW 18.4 mph - N/A   Partly Cloudy
12:30 AM 42.8 °F 34.8 °F 37.4 °F 81% 30.24 in 6.2 mi NNW 17.3 mph - N/A   Partly Cloudy
1:00 AM 42 °F - 38 °F 79% 30.29 in 19 mi NW 13.4 mph - -   Scattered Clouds
1:00 AM 41.0 °F 33.5 °F 37.4 °F 87% 30.27 in 6.2 mi NW 13.8 mph - N/A   Partly Cloudy
1:30 AM 41.0 °F 34.7 °F 37.4 °F 87% 30.27 in 6.2 mi NW 10.4 mph - N/A   Partly Cloudy
2:00 AM 41.0 °F 33.1 °F 37.4 °F 87% 30.27 in 6.2 mi NW 15.0 mph - N/A   Partly Cloudy
2:30 AM 41.0 °F 33.9 °F 37.4 °F 87% 30.27 in 6.2 mi NW 12.7 mph - N/A   Partly Cloudy
3:00 AM 41.0 °F 35.2 °F 35.6 °F 81% 30.27 in 6.2 mi WNW 9.2 mph - N/A   Partly Cloudy
3:30 AM 39.2 °F 33.0 °F 35.6 °F 87% 30.27 in 6.2 mi WNW 9.2 mph - N/A   Partly Cloudy
4:00 AM 39.2 °F 32.5 °F 35.6 °F 87% 30.27 in 6.2 mi WNW 10.4 mph - N/A   Partly Cloudy
4:30 AM 39.2 °F 33.6 °F 35.6 °F 87% 30.30 in 6.2 mi NW 8.1 mph - N/A   Partly Cloudy
5:00 AM 37.4 °F 30.8 °F 33.8 °F 87% 30.30 in 6.2 mi WNW 9.2 mph - N/A   Partly Cloudy
5:30 AM 37.4 °F 30.8 °F 33.8 °F 87% 30.30 in 6.2 mi WNW 9.2 mph - N/A   Partly Cloudy
6:00 AM 39.2 °F 30.8 °F 35.6 °F 87% 30.30 in 6.2 mi NW 15.0 mph - N/A   Partly Cloudy
6:30 AM 39.2 °F 32.0 °F 35.6 °F 87% 30.30 in 6.2 mi NW 11.5 mph - N/A   Partly Cloudy
7:00 AM 39.2 °F 31.2 °F 35.6 °F 87% 30.30 in 6.2 mi NW 13.8 mph - N/A   Partly Cloudy
7:30 AM 39.2 °F 30.8 °F 35.6 °F 87% 30.30 in 6.2 mi NW 15.0 mph - N/A   Partly Cloudy
8:00 AM 39.2 °F 32.0 °F 35.6 °F 87% 30.33 in 6.2 mi NW 11.5 mph - N/A   Partly Cloudy
8:30 AM 39.2 °F 30.8 °F 35.6 °F 87% 30.33 in 6.2 mi NW 15.0 mph - N/A   Partly Cloudy
9:00 AM 41.0 °F 33.5 °F 37.4 °F 87% 30.33 in 6.2 mi NW 13.8 mph - N/A   Partly Cloudy
9:30 AM 42.8 °F 38.6 °F 39.2 °F 87% 30.36 in 6.2 mi WNW 6.9 mph - N/A   Partly Cloudy
10:00 AM 46.4 °F 42.4 °F 39.2 °F 76% 30.36 in 6.2 mi NW 8.1 mph - N/A   Partly Cloudy
10:30 AM 46.4 °F 43.5 °F 39.2 °F 76% 30.36 in 6.2 mi NW 5.8 mph - N/A   Partly Cloudy
11:00 AM 48.2 °F - 39.2 °F 71% 30.36 in 6.2 mi NNW 8.1 mph - N/A   Partly Cloudy
11:30 AM 48.2 °F - 39.2 °F 71% 30.36 in 6.2 mi North 13.8 mph - N/A   Scattered Clouds
12:00 PM 50.0 °F - 37.4 °F 62% 30.36 in 6.2 mi North 15.0 mph - N/A   Scattered Clouds
12:30 PM 50.0 °F - 37.4 °F 62% 30.36 in 6.2 mi North 17.3 mph - N/A   Scattered Clouds
1:00 PM 51 °F - 36 °F 45% 30.39 in 44 mi North 15.7 mph - -   Partly Cloudy
1:00 PM 51.8 °F - 37.4 °F 58% 30.36 in 6.2 mi North 17.3 mph - N/A   Scattered Clouds
1:30 PM 50.0 °F - 37.4 °F 62% 30.36 in 6.2 mi North 15.0 mph - N/A   Scattered Clouds
2:00 PM 51.8 °F - 37.4 °F 58% 30.36 in 6.2 mi NNE 17.3 mph - N/A   Mostly Cloudy
2:30 PM 53.6 °F - 37.4 °F 54% 30.36 in 6.2 mi North 13.8 mph - N/A   Scattered Clouds
3:00 PM 51.8 °F - 35.6 °F 54% 30.36 in 6.2 mi North 16.1 mph - N/A   Partly Cloudy
3:30 PM 50.0 °F - 35.6 °F 58% 30.36 in 6.2 mi North 12.7 mph - N/A   Partly Cloudy
4:00 PM 51.8 °F - 37.4 °F 58% 30.36 in 6.2 mi North 13.8 mph - N/A   Partly Cloudy
4:30 PM 51.8 °F - 35.6 °F 54% 30.36 in 6.2 mi North 10.4 mph - N/A   Partly Cloudy
5:00 PM 51.8 °F - 35.6 °F 54% 30.36 in 6.2 mi NNE 13.8 mph - N/A   Partly Cloudy
5:30 PM 50.0 °F - 35.6 °F 58% 30.36 in 6.2 mi North 12.7 mph - N/A   Partly Cloudy
6:00 PM 50.0 °F - 37.4 °F 62% 30.36 in 6.2 mi NNW 10.4 mph - N/A   Partly Cloudy
6:30 PM 46.4 °F 41.5 °F 37.4 °F 71% 30.36 in 6.2 mi NNW 10.4 mph - N/A   Partly Cloudy
7:00 PM 47 °F - 36 °F 57% 30.39 in 37 mi NNW 8.9 mph - -   Scattered Clouds
7:00 PM 46.4 °F 42.9 °F 37.4 °F 71% 30.36 in 6.2 mi NNW 6.9 mph - N/A   Partly Cloudy
7:30 PM 44.6 °F 39.2 °F 35.6 °F 71% 30.36 in 6.2 mi NNW 10.4 mph - N/A   Partly Cloudy
8:00 PM 44.6 °F 40.2 °F 37.4 °F 76% 30.36 in 6.2 mi North 8.1 mph - N/A   Scattered Clouds
8:30 PM 44.6 °F 40.2 °F 37.4 °F 76% 30.36 in 6.2 mi North 8.1 mph - N/A   Scattered Clouds
9:00 PM 42.8 °F 38.6 °F 35.6 °F 76% 30.36 in 6.2 mi North 6.9 mph - N/A   Scattered Clouds
9:30 PM 42.8 °F 37.5 °F 37.4 °F 81% 30.39 in 6.2 mi NW 9.2 mph - N/A   Scattered Clouds
10:00 PM 41.0 °F 35.2 °F 35.6 °F 81% 30.39 in 6.2 mi North 9.2 mph - N/A   Scattered Clouds
10:30 PM 41.0 °F 35.2 °F 37.4 °F 87% 30.39 in 6.2 mi NNW 9.2 mph - N/A   Scattered Clouds
11:00 PM 39.2 °F 32.5 °F 35.6 °F 87% 30.39 in 6.2 mi NNW 10.4 mph - N/A   Scattered Clouds
11:30 PM 42.8 °F 38.0 °F 39.2 °F 87% 30.39 in 6.2 mi NNW 8.1 mph - N/A   Scattered Clouds